Mt. Clemens, MI

2:06 AM EDT on April 24, 2017 (GMT -0400)
Selfridge Angb

Weather History for KMTC - April, 2013

Change the Weather History Date:

Thursday, April 11, 2013

  Actual Average Record
Temperature  
Mean Temperature 37 °F -  
Max Temperature 40 °F 52 °F 83 °F (1977)
Min Temperature 35 °F 33 °F 23 °F (1967)
Degree Days  
Heating Degree Days 28    
Moisture  
Dew Point 37 °F    
Average Humidity 99    
Maximum Humidity 100    
Minimum Humidity 93    
Precipitation  
Precipitation 0.67 in - - ()
Sea Level Pressure  
Sea Level Pressure 29.89 in    
Wind  
Wind Speed 13 mph (NE)    
Max Wind Speed 22 mph    
Max Gust Speed 30 mph    
Visibility 6 miles    
Events Rain , Thunderstorm    
Averages and records for this station are not official NWS values.
T = Trace of Precipitation, MM = Missing Value Source: NWS Daily Summary

Daily Weather History Graph

Daily Weather History Graph

Search for Another Location

Airport or City:

Trip Planner

Search our weather history database for the weather conditions in past years. The results will help you decide how hot, cold, wet, or windy it might be!

Date:

Astronomy

Apr. 11, 2013 Rise Set
Actual Time 6:56 AM EDT 8:09 PM EDT
Civil Twilight 6:27 AM EDT 8:38 PM EDT
Nautical Twilight 5:52 AM EDT 9:13 PM EDT
Astronomical Twilight 5:15 AM EDT 9:49 PM EDT
Moon 7:25 AM EDT (4/11) 9:44 PM EDT (4/11)
Length of Visible Light 14h 10m
Length of Day
13h 12m
New Moon, 2% of the Moon is Illuminated
Apr 11
New Moon
Apr 18
First Quarter
Apr 25
Full
May 2
Last Quarter
May 9
New

Hourly Weather History & Observations

Time (EDT) Temp. Windchill Dew Point Humidity Pressure Visibility Wind Dir Wind Speed Gust Speed Precip Events Conditions
12:02 AM 39.2 °F 33.0 °F 39.2 °F 100% 30.00 in 10.0 mi NNE 9.2 mph - N/A   Overcast
12:17 AM 39.2 °F 32.5 °F 39.2 °F 100% 30.01 in 10.0 mi NNE 10.4 mph - N/A   Overcast
12:55 AM 39.2 °F 32.5 °F 38.8 °F 99% 30.00 in 10.0 mi NNE 10.4 mph - N/A   Overcast
1:17 AM 39.2 °F 31.6 °F 39.2 °F 100% 30.00 in 10.0 mi NNE 12.7 mph - N/A   Overcast
1:55 AM 39.9 °F 32.5 °F 39.2 °F 97% 30.00 in 10.0 mi NE 12.7 mph - N/A   Overcast
2:55 AM 39.7 °F 32.3 °F 38.5 °F 95% 29.99 in 10.0 mi NNE 12.7 mph - N/A   Overcast
3:13 AM 39.2 °F 31.6 °F 37.4 °F 93% 29.99 in 10.0 mi NNE 12.7 mph - N/A Rain Light Rain
3:26 AM 39.2 °F 30.8 °F 37.4 °F 93% 29.95 in 10.0 mi NNE 15.0 mph - N/A Rain Light Rain
3:55 AM 38.3 °F 29.7 °F 37.9 °F 99% 29.91 in 10.0 mi NE 15.0 mph - 0.03 in   Overcast
4:30 AM 39.2 °F 33.0 °F 37.4 °F 93% 29.96 in 10.0 mi NE 9.2 mph - N/A Rain Rain
4:53 AM 37.4 °F 29.8 °F 37.4 °F 100% 29.96 in 9.0 mi NNE 11.5 mph - N/A Rain Rain
4:55 AM 38.1 °F 30.7 °F 37.8 °F 99% 29.95 in 8.0 mi NNE 11.5 mph - 0.10 in Rain Rain
5:02 AM 37.4 °F 28.9 °F 37.4 °F 100% 29.93 in 7.0 mi NNE 13.8 mph - N/A Rain Heavy Rain
5:03 AM 37.4 °F 29.3 °F 37.4 °F 100% 29.94 in 7.0 mi NNE 12.7 mph - N/A Rain Heavy Rain
5:07 AM 37.4 °F 30.3 °F 37.4 °F 100% 29.95 in 7.0 mi NNE 10.4 mph - N/A Rain Rain
5:26 AM 37.4 °F 30.8 °F 37.4 °F 100% 29.97 in 9.0 mi North 9.2 mph - N/A Rain Rain
5:30 AM 37.4 °F 32.1 °F 37.4 °F 100% 29.98 in 8.0 mi North 6.9 mph - N/A Rain Rain
5:36 AM 37.4 °F 30.3 °F 37.4 °F 100% 29.97 in 7.0 mi NNE 10.4 mph - N/A Rain , Thunderstorm Rain
5:45 AM 37.4 °F 28.9 °F 37.4 °F 100% 29.95 in 6.0 mi NNE 13.8 mph - N/A Rain , Thunderstorm Heavy Rain
5:46 AM 37.4 °F 28.5 °F 37.4 °F 100% 29.95 in 6.0 mi NNE 15.0 mph - N/A Rain , Thunderstorm Heavy Rain
5:47 AM 37.4 °F 28.5 °F 37.4 °F 100% 29.94 in 6.0 mi NNE 15.0 mph - N/A Rain , Thunderstorm Heavy Rain
5:55 AM 37.4 °F 30.3 °F 37.2 °F 99% 29.95 in 6.0 mi NNE 10.4 mph - 0.22 in Rain Heavy Rain
5:56 AM 37.4 °F 29.8 °F 37.4 °F 100% 29.95 in 6.0 mi NNE 11.5 mph - N/A Rain Heavy Rain
6:55 AM 37.9 °F 30.0 °F 37.8 °F 99% 29.94 in 5.0 mi ENE 12.7 mph - N/A Rain Light Rain
7:45 AM 38.5 °F 29.9 °F 38.3 °F 99% 30.01 in 4.0 mi ENE 15.0 mph - N/A Rain Light Rain
7:57 AM 38.5 °F 29.9 °F 38.3 °F 99% 29.96 in 4.0 mi ENE 15.0 mph - N/A Rain Light Rain
8:13 AM 37.4 °F 30.8 °F 37.4 °F 100% 29.96 in 4.0 mi NE 9.2 mph - N/A Rain Light Rain
8:43 AM 39.2 °F 31.6 °F 39.2 °F 100% 29.95 in 4.0 mi NE 12.7 mph - N/A Rain Light Rain
8:55 AM 38.5 °F 30.3 °F 38.3 °F 99% 29.99 in 2.0 mi NE 13.8 mph - N/A Rain Light Rain
9:18 AM 37.4 °F 27.2 °F 37.4 °F 100% 29.93 in 2.0 mi ENE 19.6 mph 24.2 mph N/A Rain Light Rain
9:30 AM 37.4 °F 28.2 °F 37.4 °F 100% 29.93 in 4.0 mi ENE 16.1 mph - N/A   Overcast
9:55 AM 37.9 °F 28.5 °F 37.6 °F 99% 29.98 in 5.0 mi ENE 17.3 mph 24.2 mph N/A   Light Drizzle
10:43 AM 37.4 °F 27.5 °F 37.4 °F 100% 29.90 in 5.0 mi ENE 18.4 mph - N/A   Light Drizzle
10:55 AM 36.7 °F 27.2 °F 36.5 °F 99% 29.96 in 4.0 mi ENE 16.1 mph 26.5 mph N/A   Light Drizzle
11:13 AM 35.6 °F 26.6 °F 35.6 °F 100% 29.94 in 3.0 mi ENE 13.8 mph - N/A   Light Drizzle
11:22 AM 35.6 °F 25.2 °F 35.6 °F 100% 29.92 in 1.5 mi ENE 18.4 mph 25.3 mph N/A Rain Light Rain
11:33 AM 35.6 °F 26.2 °F 35.6 °F 100% 29.93 in 1.8 mi ENE 15.0 mph - N/A   Light Drizzle
11:44 AM 35.6 °F 25.9 °F 35.6 °F 100% 29.93 in 2.0 mi ENE 16.1 mph - N/A   Light Drizzle
11:55 AM 36.1 °F 26.5 °F 36.0 °F 99% 29.98 in 2.5 mi ENE 16.1 mph - N/A   Light Drizzle
12:17 PM 35.6 °F 25.5 °F 35.6 °F 100% 29.92 in 2.0 mi ENE 17.3 mph - N/A   Light Drizzle
12:23 PM 35.6 °F 25.2 °F 35.6 °F 100% 29.91 in 1.8 mi ENE 18.4 mph - N/A Rain Light Rain
12:33 PM 35.6 °F 25.5 °F 35.6 °F 100% 29.91 in 2.0 mi ENE 17.3 mph - N/A Rain Light Rain
12:40 PM 35.6 °F 25.5 °F 35.6 °F 100% 29.91 in 2.5 mi ENE 17.3 mph - N/A Rain Light Rain
12:55 PM 36.5 °F 26.3 °F 36.1 °F 99% 29.94 in 2.8 mi ENE 18.4 mph - N/A Rain Light Rain
1:02 PM 37.4 °F 26.9 °F 35.6 °F 93% 29.90 in 3.0 mi ENE 20.7 mph - N/A   Light Drizzle
1:10 PM 37.4 °F 26.6 °F 37.4 °F 100% 29.90 in 5.0 mi ENE 21.9 mph 29.9 mph N/A   Overcast
1:55 PM 36.5 °F 26.0 °F 36.3 °F 99% 29.94 in 7.0 mi ENE 19.6 mph 27.6 mph N/A   Overcast
2:02 PM 35.6 °F 25.5 °F 35.6 °F 100% 29.90 in 1.8 mi East 17.3 mph - N/A Rain Rain
2:07 PM 35.6 °F 25.2 °F 35.6 °F 100% 29.90 in 2.0 mi ENE 18.4 mph 25.3 mph N/A Rain Rain
2:14 PM 35.6 °F 26.2 °F 35.6 °F 100% 29.89 in 3.0 mi ENE 15.0 mph 25.3 mph N/A Rain Rain
2:20 PM 35.6 °F 24.8 °F 35.6 °F 100% 29.90 in 3.0 mi ENE 19.6 mph - N/A Rain Light Rain
2:27 PM 35.6 °F 24.5 °F 35.6 °F 100% 29.90 in 6.0 mi ENE 20.7 mph 24.2 mph N/A   Light Drizzle
2:45 PM 35.6 °F 25.9 °F 35.6 °F 100% 29.89 in 7.0 mi ENE 16.1 mph 26.5 mph N/A   Overcast
2:55 PM 36.3 °F 25.8 °F 36.1 °F 99% 29.93 in 7.0 mi East 19.6 mph 25.3 mph N/A   Overcast
3:24 PM 37.4 °F 28.5 °F 35.6 °F 93% 29.87 in 3.0 mi ENE 15.0 mph - N/A Rain Light Rain Showers
3:28 PM 35.6 °F 25.5 °F 35.6 °F 100% 29.87 in 2.0 mi East 17.3 mph - N/A Rain Light Rain Showers
3:32 PM 37.4 °F 28.5 °F 35.6 °F 93% 29.87 in 1.8 mi East 15.0 mph - N/A Rain Rain Showers
3:39 PM 35.6 °F 24.8 °F 35.6 °F 100% 29.86 in 3.0 mi East 19.6 mph - N/A Rain Light Rain Showers
3:51 PM 35.6 °F 26.2 °F 35.6 °F 100% 29.85 in 7.0 mi ENE 15.0 mph - N/A   Overcast
3:55 PM 36.3 °F 28.0 °F 36.1 °F 99% 29.90 in 7.0 mi ENE 12.7 mph 23.0 mph N/A   Overcast
4:08 PM 37.4 °F 29.3 °F 35.6 °F 93% 29.85 in 7.0 mi East 12.7 mph 21.9 mph N/A   Overcast
4:55 PM 37.0 °F 28.9 °F 36.5 °F 98% 29.88 in 10.0 mi ENE 12.7 mph 19.6 mph N/A   Overcast
5:55 PM 37.4 °F 28.2 °F 36.3 °F 96% 29.86 in 10.0 mi ENE 16.1 mph - N/A   Overcast
6:52 PM 37.4 °F 29.8 °F 37.4 °F 100% 29.80 in 7.0 mi ENE 11.5 mph - N/A Rain Light Rain
6:55 PM 37.9 °F 29.6 °F 37.2 °F 97% 29.84 in 7.0 mi ENE 13.8 mph - N/A Rain Light Rain
7:55 PM 37.8 °F 29.4 °F 37.6 °F 99% 29.81 in 10.0 mi ENE 13.8 mph - 0.03 in Rain Light Rain
8:20 PM 37.4 °F 29.3 °F 37.4 °F 100% 29.81 in 10.0 mi ENE 12.7 mph - N/A Rain Light Rain
8:35 PM 37.4 °F 28.9 °F 37.4 °F 100% 29.79 in 10.0 mi ENE 13.8 mph - N/A Rain Light Rain
8:38 PM 37.4 °F 29.8 °F 37.4 °F 100% 29.79 in 10.0 mi NE 11.5 mph - N/A   Overcast
8:55 PM 37.4 °F 28.9 °F 37.2 °F 99% 29.78 in 10.0 mi ENE 13.8 mph - 0.03 in Rain Light Rain
9:45 PM 37.4 °F 29.3 °F 37.4 °F 100% 29.78 in 10.0 mi ENE 12.7 mph - N/A   Overcast
9:52 PM 37.4 °F 29.3 °F 37.4 °F 100% 29.78 in 10.0 mi ENE 12.7 mph - N/A   Overcast
9:55 PM 36.9 °F 27.8 °F 36.5 °F 99% 29.78 in 10.0 mi ENE 15.0 mph - 0.05 in   Overcast
10:02 PM 37.4 °F 29.3 °F 35.6 °F 93% 29.77 in 10.0 mi ENE 12.7 mph - N/A   Overcast
10:13 PM 37.4 °F 29.3 °F 35.6 °F 93% 29.77 in 10.0 mi ENE 12.7 mph - N/A Rain Light Rain
10:19 PM 37.4 °F 28.5 °F 35.6 °F 93% 29.76 in 10.0 mi ENE 15.0 mph - N/A   Overcast
10:32 PM 35.6 °F 27.1 °F 35.6 °F 100% 29.76 in 10.0 mi ENE 12.7 mph - N/A Rain Light Rain
10:55 PM 36.3 °F 27.5 °F 36.0 °F 99% 29.75 in 10.0 mi ENE 13.8 mph - 0.09 in   Overcast
11:03 PM 35.6 °F 27.1 °F 35.6 °F 100% 29.75 in 8.0 mi ENE 12.7 mph - N/A   Overcast
11:14 PM 35.6 °F 27.5 °F 35.6 °F 100% 29.74 in 9.0 mi ENE 11.5 mph - N/A   Overcast
11:32 PM 35.6 °F 26.2 °F 35.6 °F 100% 29.73 in 9.0 mi East 15.0 mph - N/A   Overcast
11:46 PM 35.6 °F 26.2 °F 35.6 °F 100% 29.70 in 9.0 mi East 15.0 mph - N/A   Overcast
11:55 PM 36.1 °F 27.7 °F 36.0 °F 99% 29.70 in 10.0 mi East 12.7 mph - 0.12 in   Overcast